Location: Creola (historical)
(38.1334°N, 100.5024°W)
Time: 00:44:00
(UTC+00:00)

Cosmos 44 - Pass Details

Date: 18 October 2021
Orbit: 579 x 782 km, 65.1° (Epoch: 28 November)

Event Time Altitude Azimuth Distance (km) Brightness Sun altitude
Rises 12:05:18 0° 327° (NNW) 3,102 6.3 -10.3°
Reaches altitude 10° 12:07:43 10° 325° (NW) 2,146 5.5 -9.8°
Maximum altitude 12:12:33 69° 242° (WSW) 704 3.2 -8.9°
Drops below altitude 10° 12:17:04 10° 160° (SSE) 2,003 6.0 -8.0°
Sets 12:19:16 0° 158° (SSE) 2,877 6.9 -7.6°
